EW2849 Weather Reports


Display with metric or nautical units.
time (UTC)temp
F
wind
direction
speed
MPH
gust
MPH
rain 1hr
in
rain 24hr
in
rain mn
in
humidity
%
barometer
mb
20260504191540 60 338 4.0 4.0 0.00 0.00 0.00 100 1012.2
20260504190339 61 338 4.0 4.0 0.00 0.00 0.00 100 1012.2
20260504185157 61 338 4.0 4.0 0.00 0.00 0.00 100 1012.2
20260504183936 61 338 4.0 4.0 0.00 0.00 0.00 99 1012.2
20260504182735 62 338 4.0 4.0 0.00 0.00 0.00 99 1012.2
20260504181534 62 338 4.0 4.0 0.00 0.00 0.00 99 1012.2
20260504180333 63 338 4.0 4.0 0.00 0.00 0.00 98 1012.2
20260504175132 63 338 4.0 4.0 0.00 0.00 0.00 97 1012.2
20260504173930 63 338 4.0 4.0 0.00 0.00 0.00 97 1012.2
20260504172729 63 338 4.0 4.0 0.00 0.00 0.00 98 1012.2
20260504171548 63 338 4.0 4.0 0.00 0.00 0.00 98 1012.2
20260504170327 63 338 4.0 4.0 0.00 0.00 0.00 99 1012.2
20260504160322 64 338 4.0 4.0 0.00 0.00 0.00 100 1012.2
20260504150456 64 338 4.0 4.0 0.00 0.00 0.00 100 1012.2
20260504140430 62 338 4.0 4.0 0.00 0.00 0.00 100 1012.2
20260504130424 61 23 2.0 3.0 0.00 0.00 0.00 100 1012.2
20260504110353 64 278 3.0 5.0 0.00 0.00 0.00 100 1012.2
20260504100347 60 225 5.0 6.0 0.00 0.00 0.00 100 1012.2
20260504081536 59 82 4.0 5.0 0.00 0.00 0.00 100 1012.2
20260504080335 58 123 2.0 3.0 0.00 0.00 0.00 100 1012.2
20260504070329 59 293 0.0 1.0 0.00 0.00 0.00 100 1012.2
20260504050319 57 270 0.0 2.0 0.00 0.00 0.00 100 1012.2
20260504045118 56 203 0.0 1.0 0.00 0.00 0.00 100 1012.2
20260504043917 56 198 2.0 2.0 0.00 0.00 0.00 100 1012.2
20260504042716 56 345 1.0 3.0 0.00 0.00 0.00 100 1008.8
20260504041615 55 203 1.0 2.0 0.00 0.00 0.00 100 1012.2
20260504040433 55 207 0.0 1.0 0.00 0.00 0.00 100 1012.2
20260504035213 55 82 1.0 2.0 0.00 0.00 0.00 100 1012.2
20260504034032 55 198 1.0 2.0 0.00 0.00 0.00 100 1012.2
20260504032811 55 180 0.0 1.0 0.00 0.00 0.00 100 1012.2
20260504031629 56 293 5.0 8.0 0.00 0.00 0.00 100 1012.2
20260504030529 56 293 5.0 8.0 0.00 0.00 0.00 100 1012.2
20260504025207 56 293 5.0 8.0 0.00 0.00 0.00 100 1012.2
20260504024006 56 293 5.0 8.0 0.00 0.00 0.00 100 1012.2
20260504022805 56 293 5.0 8.0 0.00 0.00 0.00 100 1009.7
20260504021624 56 293 5.0 8.0 0.00 0.00 0.00 100 1010.5
20260504020404 56 293 5.0 8.0 0.00 0.00 0.00 100 1008.8
20260504015201 56 293 5.0 8.0 0.00 0.00 0.00 100 1008.8
20260504014000 55 293 5.0 8.0 0.00 0.00 0.00 100 1008.8
20260504012759 55 293 5.0 8.0 0.00 0.00 0.00 100 1008.8
20260504011557 55 293 5.0 8.0 0.00 0.00 0.00 100 1008.8
20260504010357 54 293 5.0 8.0 0.00 0.00 0.00 100 1008.8
20260504005155 54 293 5.0 8.0 0.00 0.00 0.00 100 1008.8
20260504003954 54 293 5.0 8.0 0.00 0.00 0.00 100 1008.8
20260504002753 54 293 5.0 8.0 0.00 0.00 0.00 100 1008.8
20260504001552 55 293 5.0 8.0 0.00 0.00 0.00 100 1008.8
20260504000354 55 293 5.0 8.0 0.00 0.00 0.00 100 1008.8
20260503235150 55 293 5.0 8.0 0.00 0.00 0.00 100 1008.8
20260503234010 55 293 5.0 8.0 0.00 0.00 0.00 100 1008.8
20260503232749 55 293 5.0 8.0 0.00 0.00 0.00 100 1008.8
20260503231546 55 293 5.0 8.0 0.00 0.00 0.00 100 1008.8
20260503230345 55 293 5.0 8.0 0.00 0.00 0.00 100 1008.8
20260503225145 56 293 5.0 8.0 0.00 0.00 0.00 100 1009.7
20260503223943 56 293 5.0 8.0 0.00 0.00 0.00 100 1012.2
20260503222742 56 293 5.0 8.0 0.00 0.00 0.00 100 1010.5
20260503221540 56 293 5.0 8.0 0.00 0.00 0.00 100 1012.2
20260503220340 56 293 5.0 8.0 0.00 0.00 0.00 100 1010.5
20260503215150 56 293 5.0 8.0 0.00 0.00 0.00 100 1010.5
20260503213949 56 293 5.0 8.0 0.00 0.00 0.00 100 1012.2
20260503212748 57 293 5.0 8.0 0.00 0.00 0.00 100 1010.5
20260503211546 56 293 5.0 8.0 0.00 0.00 0.00 100 1012.2
20260503210346 57 293 5.0 8.0 0.00 0.00 0.00 100 1009.7
20260503205144 57 293 5.0 8.0 0.00 0.00 0.00 100 1008.8
20260503203944 57 293 5.0 8.0 0.00 0.00 0.00 100 1008.8
20260503202803 57 293 5.0 8.0 0.00 0.00 0.00 100 1008.8
20260503201541 58 293 5.0 8.0 0.00 0.00 0.00 100 1008.8
20260503200340 58 293 5.0 8.0 0.00 0.00 0.00 100 1008.8
20260503195138 58 293 5.0 8.0 0.00 0.00 0.00 100 1008.8
20260503193937 58 293 5.0 8.0 0.00 0.00 0.00 100 1008.8
20260503192736 58 293 5.0 8.0 0.00 0.00 0.00 100 1008.8